Wind_Speed
18 21 23 24 25 25 25 25 26 30 31 35 37 38 40 41 39 36 35 35 34 34 30 28 25 24 22 20 18 13 8 9 6 5 10 11 12 11 12 12 13 15 16
17 20 23 23 24 25 26 25 27 35 34 33 35 37 39 40 39 37 37 36 39 36 31 30 28 27 25 22 17 10 12 11 7 8 10 12 11 10 12 14 15 17 18
17 19 22 25 26 26 26 25 31 33 34 34 32 36 39 40 39 38 38 37 37 36 36 34 32 30 27 23 13 15 14 11 10 10 8 10 10 10 12 13 15 18 19
19 22 25 28 28 27 26 28 33 33 33 33 34 34 38 39 39 39 37 35 35 35 34 34 35 33 29 18 16 17 13 12 12 12 12 12 12 11 15 16 18 16 16
21 23 27 25 24 25 27 28 30 33 34 33 33 34 35 37 40 39 38 36 36 34 33 32 31 29 18 15 20 17 17 15 15 14 14 12 14 11 14 12 18 21 24
25 28 25 25 24 27 28 31 32 32 31 30 31 33 35 37 38 41 38 38 36 36 34 31 32 24 18 17 16 15 17 19 18 17 16 15 18 16 17 17 17 15 10
28 28 28 27 27 29 29 30 31 31 30 30 30 31 34 35 37 39 37 36 35 33 34 34 31 22 18 18 18 17 20 19 19 18 20 20 17 19 16 16 17 18 20
26 27 27 27 28 28 29 31 30 30 30 31 31 31 31 33 34 33 37 36 33 32 33 35 32 24 19 18 19 21 22 21 21 19 24 25 24 24 21 20 21 26 28
20 21 23 25 25 26 27 28 27 27 27 28 28 28 28 29 29 31 34 33 32 32 32 33 27 21 14 15 20 24 23 24 22 23 25 24 21 21 22 22 21 19 23
15 17 18 21 24 25 25 24 24 24 23 22 21 23 24 24 26 30 31 32 32 32 30 30 26 21 15 18 22 24 26 28 25 27 27 25 23 21 20 19 22 19 20
9 11 14 16 20 21 20 20 20 19 19 19 19 19 20 21 27 27 30 34 34 33 33 35 31 26 21 23 24 27 31 24 22 18 20 22 21 19 18 14 13 15 16
5 8 10 12 15 16 18 16 16 18 18 18 18 17 19 24 28 28 28 32 33 35 34 35 36 24 24 22 25 27 25 19 20 18 18 17 14 11 8 10 13 16 17
6 7 8 10 11 14 17 18 17 16 16 16 18 17 18 22 24 27 25 25 25 28 27 25 26 20 21 23 20 21 19 19 20 17 14 13 10 10 12 14 11 10 13
11 11 10 10 11 12 11 13 14 13 12 12 13 12 14 18 23 21 23 24 20 19 17 20 20 21 24 21 20 17 17 18 18 15 11 10 12 13 9 8 9 9 11
14 13 11 10 9 10 11 9 9 9 12 12 12 14 16 16 21 26 24 23 23 22 18 19 19 19 19 19 17 16 16 17 16 15 13 11 10 9 9 8 7 7 9
16 14 14 14 12 11 12 11 7 4 5 5 7 12 13 13 16 20 20 19 19 17 20 20 18 17 16 16 17 15 14 14 13 14 12 11 10 9 8 7 6 6 8
15 15 14 13 12 12 11 14 15 15 9 7 5 6 7 8 9 10 15 18 19 16 12 14 11 12 13 14 12 12 12 12 14 12 11 11 10 9 8 6 6 6 7
15 14 14 13 13 12 11 11 10 9 8 8 8 3 1 3 5 7 8 11 12 11 10 10 8 9 11 11 12 13 14 14 13 12 11 10 11 10 8 7 7 7 8
13 13 13 13 12 12 11 11 10 10 9 8 8 11 13 12 12 12 13 10 8 7 8 8 9 9 10 11 12 13 13 12 12 11 10 11 11 10 9 8 9 9 10
14 15 14 14 13 13 11 10 10 9 9 8 7 7 7 5 5 5 4 3 4 4 4 6 7 9 10 11 12 12 12 12 12 11 11 12 11 11 10 10 11 10 10
14 16 16 16 14 13 12 11 10 9 9 8 5 5 3 4 3 2 1 1 2 4 5 7 9 10 11 12 12 12 12 11 11 11 12 13 13 13 12 12 11 12 13
15 16 16 16 15 14 14 12 10 8 7 5 4 4 2 0 1 3 4 6 6 7 8 9 9 10 11 12 12 13 13 13 14 14 14 14 13 13 13 12 12 11 12
17 17 17 17 16 14 13 12 11 9 7 5 3 1 0 2 2 3 5 7 8 8 9 10 11 12 12 13 14 14 14 15 15 14 14 14 13 14 13 14 13 13 14
17 17 16 16 13 12 12 10 9 7 6 4 2 2 2 4 6 7 9 10 11 11 12 13 13 14 15 16 15 15 16 16 16 15 15 15 15 15 15 15 15 15 15
17 15 13 13 11 10 7 6 5 5 4 4 4 4 5 7 8 10 11 13 13 14 15 16 16 17 18 18 18 18 18 18 18 18 18 18 18 19 18 16 16 15 15
13 11 10 9 7 6 5 5 5 5 5 5 6 8 9 11 12 13 15 16 16 17 17 18 19 19 20 20 20 20 20 20 20 21 20 20 20 21 20 20 19 19 19
Wind_Direction
215 218 220 220 219 217 219 214 213 211 216 220 220 219 216 214 212 208 207 206 199 199 196 192 186 182 174 169 166 167 181 181 138 151 176 214 225 244 260 277 285 289 291
221 220 218 219 217 218 218 214 215 218 218 222 223 221 216 213 209 207 206 204 202 198 189 185 180 175 172 168 167 186 178 178 168 162 204 221 236 239 247 257 273 285 295
225 225 222 215 213 216 217 213 219 220 222 224 225 221 218 215 211 208 210 205 202 199 191 186 181 174 170 168 183 177 183 190 200 200 211 231 244 253 268 277 288 291 299
220 223 224 221 210 212 214 215 223 223 224 225 226 225 222 218 214 209 210 203 199 195 190 188 182 178 172 178 182 184 187 202 207 219 230 244 260 264 274 289 297 303 292
224 224 229 227 215 211 211 210 218 221 223 226 225 221 220 218 216 210 209 203 195 189 185 185 180 175 181 188 185 190 209 200 210 222 235 245 257 253 263 280 284 294 297
221 225 226 222 213 212 211 213 216 219 221 222 221 221 219 219 216 212 207 201 196 189 184 178 174 177 184 192 196 213 219 217 218 226 235 240 258 258 271 277 278 283 302
224 225 224 218 212 211 215 218 218 218 220 221 220 219 220 218 214 211 208 204 196 192 185 177 176 184 185 195 212 219 230 232 236 246 251 250 259 268 277 274 268 271 274
229 231 230 221 216 214 215 218 218 219 219 221 221 221 219 218 210 199 205 207 199 195 191 186 186 185 196 217 217 227 236 239 243 249 261 269 271 280 280 275 277 280 282
232 233 231 224 213 211 210 211 212 214 217 219 220 219 216 214 202 189 192 200 198 196 194 194 192 194 222 238 228 236 241 249 253 262 270 269 264 265 269 279 276 280 286
234 230 225 223 217 212 215 210 212 214 213 210 210 215 212 210 186 185 194 199 194 195 197 197 199 212 242 254 236 238 244 251 258 267 270 271 270 270 271 263 269 272 281
249 233 218 216 213 215 209 206 204 198 200 197 200 201 200 192 182 186 209 206 204 198 200 204 212 221 251 258 258 249 251 253 257 256 264 275 283 288 283 272 264 262 279
205 192 193 195 197 196 193 189 190 188 180 176 179 180 191 197 199 199 199 206 210 207 208 214 220 227 245 269 269 260 260 249 245 246 257 258 263 246 225 255 271 272 274
134 138 150 166 171 177 175 167 162 172 165 165 171 174 184 197 195 201 202 212 212 213 217 221 232 241 275 274 254 253 249 244 241 232 237 248 233 242 267 286 286 286 302
115 118 127 130 138 148 154 153 149 154 158 164 174 177 175 190 200 196 203 208 215 212 220 230 242 264 268 260 260 251 240 237 231 227 221 233 249 272 283 273 281 293 293
110 105 101 104 110 118 123 136 142 164 182 179 189 184 176 184 199 202 199 205 213 219 224 237 247 241 232 232 229 226 223 234 237 243 243 243 253 252 262 271 273 280 285
110 112 116 120 120 113 109 102 98 127 166 212 229 216 209 209 214 212 215 209 214 213 225 230 227 231 222 213 213 214 218 221 224 231 238 234 237 248 255 257 272 271 290
128 126 124 121 124 123 119 113 100 93 110 111 137 178 222 209 203 208 217 222 225 212 214 218 220 217 220 224 208 204 211 218 225 222 221 233 240 245 251 260 258 269 283
126 125 126 127 129 126 120 122 128 113 97 79 68 74 115 144 164 179 178 187 184 197 219 217 227 227 219 208 210 210 207 218 220 225 229 229 232 233 234 240 247 259 269
119 115 118 120 122 118 119 121 120 120 118 121 104 98 105 96 117 136 150 162 177 199 208 211 214 207 203 203 210 213 219 224 227 227 222 228 229 225 230 234 242 252 259
100 105 107 107 105 107 113 116 112 108 112 117 111 116 122 84 90 120 146 151 165 190 207 220 226 225 224 224 226 229 231 229 229 228 222 226 222 226 230 235 238 240 246
88 90 96 97 94 99 102 100 99 99 104 106 109 94 112 107 84 81 83 307 274 263 254 250 251 248 245 243 241 239 235 236 233 228 223 224 225 225 233 226 233 245 254
92 89 88 87 89 87 85 85 86 93 96 98 97 103 74 105 263 276 279 275 273 270 269 267 264 261 257 254 248 242 239 233 232 233 229 229 232 238 234 233 239 241 246
85 86 84 81 78 78 79 80 80 78 79 83 87 82 329 309 302 299 293 290 286 283 277 272 267 265 262 257 251 247 244 244 241 238 237 238 239 237 238 240 242 247 246
81 79 77 76 77 73 70 68 66 68 71 64 49 5 325 301 295 292 289 285 286 286 284 279 274 270 266 263 260 256 252 250 249 248 244 241 243 243 237 238 242 242 246
73 73 73 70 69 68 66 65 58 48 31 14 349 330 311 305 300 296 295 295 292 288 286 283 279 275 271 268 265 264 262 257 254 253 251 249 246 244 242 244 243 245 249
65 64 64 63 58 51 40 28 12 357 346 330 320 313 308 305 302 298 295 291 290 288 284 281 280 278 276 273 270 267 265 262 259 257 255 251 249 249 249 249 249 247 248
Height
752 754 757 759 761 763 765 767 770 773 776 780 784 788 790 795 801 806 811 814 818 822 826 832 837 843 847 853 856 859 862 865 868 870 875 877 878 879 880 880 881 880 879
748 749 750 754 756 758 760 762 764 766 770 775 780 783 787 791 795 800 805 809 812 817 821 827 832 837 842 847 852 856 860 861 864 868 872 874 875 876 877 877 876 875 873
745 746 746 746 749 752 755 757 757 761 765 770 774 778 782 785 790 795 800 804 807 811 815 821 827 833 839 844 848 852 856 860 861 866 869 871 871 872 872 872 872 870 868
738 740 740 741 739 743 748 750 751 754 759 764 768 773 777 780 785 790 796 800 803 807 812 817 821 828 834 840 844 849 852 855 860 864 866 867 867 868 867 867 866 865 864
732 733 733 737 736 738 741 743 746 749 752 757 762 767 772 776 780 784 790 796 799 804 807 814 822 828 834 836 839 845 850 850 857 861 863 863 863 864 863 863 862 860 858
723 724 728 731 731 734 736 738 741 745 748 753 757 762 767 771 776 782 787 792 796 799 806 812 818 825 830 836 840 843 844 847 852 855 857 857 857 858 858 858 857 857 852
715 718 721 723 724 727 732 735 738 740 744 749 753 758 762 767 772 780 785 791 795 800 804 810 817 823 827 832 838 840 841 844 847 850 851 852 852 853 854 853 854 852 848
711 713 715 717 718 721 725 729 734 736 740 744 749 754 759 763 767 775 780 788 794 799 804 808 812 819 824 827 830 833 836 839 841 843 845 846 847 849 850 850 848 845 843
707 709 712 714 716 719 722 726 729 732 736 740 745 750 756 761 767 774 777 785 791 797 801 806 811 817 822 824 825 830 830 832 834 837 839 840 842 844 846 845 843 841 835
703 704 706 710 715 718 720 723 727 731 734 738 743 747 752 759 765 773 776 783 787 792 800 804 807 812 817 819 822 824 826 827 829 832 833 834 835 836 838 838 838 837 835
701 703 704 706 710 714 719 722 725 729 734 738 741 745 749 756 764 770 774 780 784 789 793 799 803 806 810 815 816 818 819 820 822 824 826 827 827 828 829 831 832 832 831
702 703 705 707 709 713 717 722 726 729 733 738 742 746 750 755 760 766 770 776 780 783 788 794 797 802 807 809 811 812 814 815 816 818 821 821 821 822 823 825 826 827 826
705 707 709 711 713 715 717 720 725 731 735 739 742 744 748 752 758 765 769 775 779 782 786 791 796 800 803 804 805 807 808 809 810 812 814 816 815 817 818 820 822 822 820
706 708 713 716 718 719 722 724 725 729 735 739 743 744 748 752 757 762 768 776 779 781 785 791 794 794 798 800 800 802 803 804 806 807 809 810 812 813 814 816 817 816 817
710 712 716 720 724 726 726 728 728 730 735 740 743 745 747 751 755 761 766 771 775 779 784 787 789 791 792 793 795 797 798 800 801 803 804 806 808 810 810 811 811 813 813
713 715 717 718 725 730 730 733 734 734 737 741 745 748 748 750 754 759 766 770 774 778 780 781 782 783 786 788 790 793 794 796 798 799 800 802 804 804 805 807 808 808 808
714 716 719 722 725 731 732 732 736 739 741 745 748 751 754 752 753 757 763 770 772 774 774 777 778 779 781 785 787 788 790 793 794 795 798 800 800 800 801 802 803 803 803
714 717 719 722 725 729 732 735 738 742 746 748 751 753 756 755 754 758 761 767 770 772 773 776 777 779 780 782 784 786 787 788 791 792 792 794 796 797 798 798 799 800 801
719 719 721 724 726 727 732 736 740 744 747 751 754 755 758 757 757 759 761 765 769 770 772 775 776 778 778 780 781 783 785 786 787 787 789 791 794 794 794 795 796 797 798
723 720 724 727 729 731 736 741 744 747 749 753 757 759 759 760 761 763 765 767 769 770 770 772 774 775 777 778 778 779 781 782 782 784 786 788 790 790 791 792 793 794 794
729 728 728 731 734 737 739 743 746 749 752 755 757 759 760 761 764 765 767 768 768 769 770 771 772 773 774 775 776 777 777 778 779 781 783 785 786 786 787 789 790 790 791
731 732 733 734 737 740 742 745 749 751 754 756 758 760 761 762 764 765 766 767 767 768 769 768 769 770 771 772 773 774 773 774 776 778 779 781 782 782 783 784 785 786 786
735 736 738 739 742 745 747 749 751 754 756 758 759 760 761 762 764 764 765 765 766 766 766 766 766 768 768 769 771 770 771 771 773 774 776 776 777 777 779 780 781 781 782
741 741 743 745 747 749 751 753 755 757 758 759 760 761 761 762 763 763 763 764 763 763 763 763 763 764 765 765 765 766 767 768 769 770 771 771 772 773 774 776 777 777 777
745 749 750 749 751 754 756 757 757 758 758 759 759 760 761 761 760 761 760 759 759 760 760 759 760 760 760 760 760 761 762 763 764 764 765 766 766 768 768 769 772 772 773
753 755 754 755 757 757 758 759 758 758 758 758 758 757 757 757 757 756 756 756 756 755 755 754 754 755 755 755 755 756 757 758 758 759 760 760 761 763 765 764 765 766 768